Time,TemperatureF,DewpointF,PressureIn,WindDirection,WindDirectionDegrees,WindSpeedMPH,WindSpeedGustMPH,Humidity,HourlyPrecipIn,Conditions,Clouds,dailyrainin,SolarRadiationWatts/m^2,SoftwareType,DateUTC
2013-06-30 00:02:00,68.0,41.0,-100.00,NNE,29,5.0,21.0,38,0.00,,,0.00,149.000000,,2013-06-30 00:02:00,
2013-06-30 00:34:00,64.0,42.0,-100.00,East,92,16.0,27.0,44,0.00,,,0.00,184.000000,,2013-06-30 00:34:00,
2013-06-30 00:43:00,64.0,42.0,-100.00,East,92,16.0,27.0,44,0.00,,,0.00,184.000000,,2013-06-30 00:43:00,
2013-06-30 00:52:00,64.0,42.0,-100.00,East,92,16.0,27.0,44,0.00,,,0.00,184.000000,,2013-06-30 00:52:00,
2013-06-30 01:01:00,64.0,42.0,-100.00,East,92,16.0,27.0,44,0.00,,,0.00,184.000000,,2013-06-30 01:01:00,
2013-06-30 01:33:00,58.0,44.0,-100.00,South,177,11.0,21.0,59,0.00,,,0.00,28.000000,,2013-06-30 01:33:00,
2013-06-30 01:44:00,58.0,44.0,-100.00,South,177,11.0,21.0,59,0.00,,,0.00,28.000000,,2013-06-30 01:44:00,
2013-06-30 01:53:00,58.0,44.0,-100.00,South,177,11.0,21.0,59,0.00,,,0.00,28.000000,,2013-06-30 01:53:00,
2013-06-30 02:02:00,58.0,44.0,-100.00,South,177,11.0,21.0,59,0.00,,,0.00,28.000000,,2013-06-30 02:02:00,
2013-06-30 02:34:00,56.0,44.0,-100.00,WSW,245,6.0,21.0,63,0.00,,,0.00,56.000000,,2013-06-30 02:34:00,
2013-06-30 02:43:00,56.0,44.0,-100.00,WSW,245,6.0,21.0,63,0.00,,,0.00,56.000000,,2013-06-30 02:43:00,
2013-06-30 02:53:00,56.0,44.0,-100.00,WSW,245,6.0,21.0,63,0.00,,,0.00,56.000000,,2013-06-30 02:53:00,
2013-06-30 03:01:00,56.0,44.0,-100.00,WSW,245,6.0,21.0,63,0.00,,,0.00,56.000000,,2013-06-30 03:01:00,
2013-06-30 03:34:00,55.0,43.0,-100.00,NNW,343,2.0,10.0,63,0.00,,,0.00,4.000000,,2013-06-30 03:34:00,
2013-06-30 03:43:00,55.0,43.0,-100.00,NNW,343,2.0,10.0,63,0.00,,,0.00,4.000000,,2013-06-30 03:43:00,
2013-06-30 03:53:00,55.0,43.0,-100.00,NNW,343,2.0,10.0,63,0.00,,,0.00,4.000000,,2013-06-30 03:53:00,
2013-06-30 04:01:00,55.0,43.0,-100.00,NNW,343,2.0,10.0,63,0.00,,,0.00,4.000000,,2013-06-30 04:01:00,
2013-06-30 04:33:00,54.0,43.0,-100.00,South,183,5.0,7.0,66,0.00,,,0.00,0.000000,,2013-06-30 04:33:00,
2013-06-30 04:43:00,54.0,43.0,-100.00,South,183,5.0,7.0,66,0.00,,,0.00,0.000000,,2013-06-30 04:43:00,
2013-06-30 04:53:00,54.0,43.0,-100.00,South,183,5.0,7.0,66,0.00,,,0.00,0.000000,,2013-06-30 04:53:00,
2013-06-30 05:02:00,54.0,43.0,-100.00,South,183,5.0,7.0,66,0.00,,,0.00,0.000000,,2013-06-30 05:02:00,
2013-06-30 05:34:00,53.0,43.0,-100.00,North,1,2.0,5.0,68,0.00,,,0.00,0.000000,,2013-06-30 05:34:00,
2013-06-30 05:43:00,53.0,43.0,-100.00,North,1,2.0,5.0,68,0.00,,,0.00,0.000000,,2013-06-30 05:43:00,
2013-06-30 05:53:00,53.0,43.0,-100.00,North,1,2.0,5.0,68,0.00,,,0.00,0.000000,,2013-06-30 05:53:00,
2013-06-30 06:02:00,53.0,43.0,-100.00,North,1,2.0,5.0,68,0.00,,,0.00,0.000000,,2013-06-30 06:02:00,
2013-06-30 06:34:00,52.0,42.0,-100.00,SE,126,3.0,5.0,69,0.00,,,-99.99,0.000000,,2013-06-30 06:34:00,
2013-06-30 06:43:00,52.0,42.0,-100.00,SE,126,3.0,5.0,69,0.00,,,-99.99,0.000000,,2013-06-30 06:43:00,
2013-06-30 06:53:00,52.0,42.0,-100.00,SE,126,3.0,5.0,69,0.00,,,-99.99,0.000000,,2013-06-30 06:53:00,
2013-06-30 07:02:00,52.0,42.0,-100.00,SE,126,3.0,5.0,69,0.00,,,-99.99,0.000000,,2013-06-30 07:02:00,
2013-06-30 07:33:00,52.0,43.0,-100.00,SSE,157,4.0,5.0,70,0.00,,,0.00,0.000000,,2013-06-30 07:33:00,
2013-06-30 07:44:00,52.0,43.0,-100.00,SSE,157,4.0,5.0,70,0.00,,,0.00,0.000000,,2013-06-30 07:44:00,
2013-06-30 07:53:00,52.0,43.0,-100.00,SSE,157,4.0,5.0,70,0.00,,,0.00,0.000000,,2013-06-30 07:53:00,
2013-06-30 08:02:00,52.0,43.0,-100.00,SSE,157,4.0,5.0,70,0.00,,,0.00,0.000000,,2013-06-30 08:02:00,
2013-06-30 08:34:00,52.0,42.0,-100.00,WSW,254,3.0,5.0,69,-99.99,,,0.00,0.000000,,2013-06-30 08:34:00,
2013-06-30 08:42:00,52.0,42.0,-100.00,WSW,254,3.0,5.0,69,-99.99,,,0.00,0.000000,,2013-06-30 08:42:00,
2013-06-30 09:34:00,49.0,42.0,-100.00,NNW,339,2.0,4.0,78,-99.99,,,0.00,0.000000,,2013-06-30 09:34:00,
2013-06-30 09:43:00,49.0,42.0,-100.00,NNW,339,2.0,4.0,78,-99.99,,,0.00,0.000000,,2013-06-30 09:43:00,
2013-06-30 09:53:00,49.0,42.0,-100.00,NNW,339,2.0,4.0,78,-99.99,,,0.00,0.000000,,2013-06-30 09:53:00,
2013-06-30 10:02:00,49.0,42.0,-100.00,NNW,339,2.0,4.0,78,-99.99,,,0.00,0.000000,,2013-06-30 10:02:00,
2013-06-30 10:34:00,48.0,41.0,-100.00,NW,313,2.0,5.0,78,0.00,,,0.00,0.000000,,2013-06-30 10:34:00,
2013-06-30 10:43:00,48.0,41.0,-100.00,NW,313,2.0,5.0,78,0.00,,,0.00,0.000000,,2013-06-30 10:43:00,
2013-06-30 10:53:00,48.0,41.0,-100.00,NW,313,2.0,5.0,78,0.00,,,0.00,0.000000,,2013-06-30 10:53:00,
2013-06-30 11:02:00,48.0,41.0,-100.00,NW,313,2.0,5.0,78,0.00,,,0.00,0.000000,,2013-06-30 11:02:00,
2013-06-30 11:33:00,49.0,41.0,-100.00,SSE,151,2.0,4.0,74,0.00,,,0.00,0.000000,,2013-06-30 11:33:00,
2013-06-30 11:43:00,49.0,41.0,-100.00,SSE,151,2.0,4.0,74,0.00,,,0.00,0.000000,,2013-06-30 11:43:00,
2013-06-30 11:53:00,49.0,41.0,-100.00,SSE,151,2.0,4.0,74,0.00,,,0.00,0.000000,,2013-06-30 11:53:00,
2013-06-30 12:02:00,49.0,41.0,-100.00,SSE,151,2.0,4.0,74,0.00,,,0.00,0.000000,,2013-06-30 12:02:00,
2013-06-30 12:33:00,47.0,41.0,-100.00,NE,45,2.0,4.0,79,0.00,,,0.00,6.000000,,2013-06-30 12:33:00,
2013-06-30 12:43:00,47.0,41.0,-100.00,NE,45,2.0,4.0,79,0.00,,,0.00,6.000000,,2013-06-30 12:43:00,
2013-06-30 12:52:00,47.0,41.0,-100.00,NE,45,2.0,4.0,79,0.00,,,0.00,6.000000,,2013-06-30 12:52:00,
2013-06-30 13:02:00,47.0,41.0,-100.00,NE,45,2.0,4.0,79,0.00,,,0.00,6.000000,,2013-06-30 13:02:00,
2013-06-30 13:34:00,51.0,41.0,-100.00,SW,222,4.0,5.0,68,0.00,,,0.00,141.000000,,2013-06-30 13:34:00,
2013-06-30 13:44:00,51.0,41.0,-100.00,SW,222,4.0,5.0,68,0.00,,,0.00,141.000000,,2013-06-30 13:44:00,
2013-06-30 13:53:00,51.0,41.0,-100.00,SW,222,4.0,5.0,68,0.00,,,0.00,141.000000,,2013-06-30 13:53:00,
2013-06-30 14:02:00,51.0,41.0,-100.00,SW,222,4.0,5.0,68,0.00,,,0.00,141.000000,,2013-06-30 14:02:00,
2013-06-30 14:33:00,57.0,41.0,-100.00,East,93,4.0,7.0,55,0.00,,,0.00,324.000000,,2013-06-30 14:33:00,
2013-06-30 14:44:00,57.0,41.0,-100.00,East,93,4.0,7.0,55,0.00,,,0.00,324.000000,,2013-06-30 14:44:00,
2013-06-30 14:52:00,57.0,41.0,-100.00,East,93,4.0,7.0,55,0.00,,,0.00,324.000000,,2013-06-30 14:52:00,
2013-06-30 15:02:00,57.0,41.0,-100.00,East,93,4.0,7.0,55,0.00,,,0.00,324.000000,,2013-06-30 15:02:00,
2013-06-30 15:44:00,65.0,41.0,-100.00,SSE,153,3.0,8.0,42,0.00,,,0.00,521.000000,,2013-06-30 15:44:00,
2013-06-30 15:53:00,65.0,41.0,-100.00,SSE,153,3.0,8.0,42,0.00,,,0.00,521.000000,,2013-06-30 15:53:00,
2013-06-30 16:01:00,65.0,41.0,-100.00,SSE,153,3.0,8.0,42,0.00,,,0.00,521.000000,,2013-06-30 16:01:00,
2013-06-30 17:01:00,70.0,42.0,-100.00,NW,313,4.0,10.0,36,0.00,,,0.00,707.000000,,2013-06-30 17:01:00,
2013-06-30 18:34:00,77.0,33.0,-100.00,NNW,334,7.0,20.0,20,-99.99,,,0.00,937.000000,,2013-06-30 18:34:00,
2013-06-30 18:43:00,77.0,33.0,-100.00,NNW,334,7.0,20.0,20,-99.99,,,0.00,937.000000,,2013-06-30 18:43:00,
2013-06-30 18:53:00,77.0,33.0,-100.00,NNW,334,7.0,20.0,20,-99.99,,,0.00,937.000000,,2013-06-30 18:53:00,
2013-06-30 19:01:00,77.0,33.0,-100.00,NNW,334,7.0,20.0,20,-99.99,,,0.00,937.000000,,2013-06-30 19:01:00,
2013-06-30 20:34:00,81.0,31.0,-100.00,NNW,336,9.0,21.0,16,-99.99,,,0.00,796.000000,,2013-06-30 20:34:00,
2013-06-30 20:42:00,81.0,31.0,-100.00,NNW,336,9.0,21.0,16,-99.99,,,0.00,796.000000,,2013-06-30 20:42:00,
2013-06-30 20:52:00,81.0,31.0,-100.00,NNW,336,9.0,21.0,16,-99.99,,,0.00,796.000000,,2013-06-30 20:52:00,
2013-06-30 21:34:00,77.0,34.0,-100.00,NNW,335,7.0,22.0,21,0.00,,,0.00,542.000000,,2013-06-30 21:34:00,
2013-06-30 21:43:00,77.0,34.0,-100.00,NNW,335,7.0,22.0,21,0.00,,,0.00,542.000000,,2013-06-30 21:43:00,
2013-06-30 21:53:00,77.0,34.0,-100.00,NNW,335,7.0,22.0,21,0.00,,,0.00,542.000000,,2013-06-30 21:53:00,
2013-06-30 22:01:00,77.0,34.0,-100.00,NNW,335,7.0,22.0,21,0.00,,,0.00,542.000000,,2013-06-30 22:01:00,
2013-06-30 22:34:00,75.0,36.0,-100.00,NW,323,6.0,15.0,24,0.00,,,0.00,483.000000,,2013-06-30 22:34:00,
2013-06-30 22:43:00,75.0,36.0,-100.00,NW,323,6.0,15.0,24,0.00,,,0.00,483.000000,,2013-06-30 22:43:00,
2013-06-30 22:53:00,75.0,36.0,-100.00,NW,323,6.0,15.0,24,0.00,,,0.00,483.000000,,2013-06-30 22:53:00,
2013-06-30 23:01:00,75.0,36.0,-100.00,NW,323,6.0,15.0,24,0.00,,,0.00,483.000000,,2013-06-30 23:01:00,
2013-06-30 23:33:00,76.0,34.0,-100.00,NNW,328,11.0,23.0,22,0.00,,,0.00,572.000000,,2013-06-30 23:33:00,